Wetbulb
72.99 73.82 74.09 73.32 73.35 73.81 73.48 74.89 75.81 76.59 76.94 77.00 77.34 77.40 77.26 77.26 77.75 77.58 76.90 76.62 76.63 76.67 76.63 76.34 76.26 77.29 76.00 76.14 76.75 76.60 75.65 74.90 72.33 73.68 76.11 77.45 78.55 78.58 79.25 79.92 78.73 78.07 76.63
73.05 73.69 73.35 73.74 73.49 73.02 73.13 73.53 75.08 75.69 76.86 77.00 77.08 76.86 76.84 77.06 77.64 76.95 76.57 76.19 75.85 75.83 76.20 76.56 76.10 75.77 76.65 77.18 76.05 76.59 76.10 76.92 74.91 74.25 76.19 75.87 77.28 78.90 79.30 79.16 78.15 77.15 77.72
72.20 71.56 72.67 72.99 72.90 73.26 73.35 73.71 74.01 74.64 75.70 76.42 76.74 76.56 76.57 76.59 76.92 77.26 77.14 76.81 76.64 76.59 76.36 76.31 76.20 76.45 76.42 76.40 76.86 76.26 75.98 76.27 76.37 74.92 74.29 75.86 76.69 77.70 77.54 78.35 77.94 78.01 76.52
72.33 71.21 71.98 72.76 73.52 73.34 74.31 74.44 73.86 74.14 74.45 75.03 75.75 76.00 76.53 76.89 76.87 76.90 76.80 77.03 76.95 76.63 76.91 76.74 76.43 76.33 76.42 76.83 76.34 76.84 77.03 76.50 76.34 75.30 74.41 74.34 75.26 77.22 77.12 74.91 73.25 75.05 75.34
72.52 72.22 72.33 73.37 73.81 73.77 73.89 74.27 74.49 74.27 74.12 74.97 75.03 75.23 75.89 76.08 76.10 76.89 76.89 76.73 76.74 76.78 76.89 77.02 76.69 75.64 72.64 73.40 75.28 76.16 76.76 75.39 74.20 73.66 73.17 73.31 73.33 73.48 74.37 74.27 73.15 74.18 76.06
70.99 71.70 72.86 73.30 73.31 72.97 73.23 73.23 73.59 73.98 74.13 74.17 74.31 74.42 74.56 74.32 68.25 68.17 74.04 76.69 77.17 76.80 76.39 76.84 77.23 73.46 72.87 68.39 68.03 68.45 72.51 75.82 74.94 73.33 72.59 73.07 75.31 75.03 74.36 73.78 73.85 72.91 71.12
63.36 66.69 71.95 72.86 72.87 73.08 73.06 72.98 73.04 72.99 73.68 73.68 73.74 73.83 74.55 75.56 65.41 66.31 68.43 76.58 76.79 76.89 76.88 76.78 76.35 75.90 73.60 76.51 70.06 66.82 67.27 66.30 68.39 75.64 74.59 74.72 75.56 76.03 76.22 75.50 75.58 74.70 73.75
60.20 61.21 62.75 65.33 71.92 73.21 73.11 72.89 73.01 72.77 72.84 73.83 73.53 73.83 74.32 74.56 64.68 64.20 66.38 75.25 76.92 76.92 77.01 76.87 76.73 76.96 76.67 76.48 76.59 76.22 76.43 76.62 76.09 74.19 75.27 76.13 76.92 77.59 77.35 76.84 76.00 75.59 75.53
58.53 59.43 61.08 62.57 64.21 66.51 72.00 72.72 72.86 72.28 72.45 72.41 73.03 73.73 73.78 74.61 62.83 62.47 65.71 73.24 74.33 76.41 76.59 76.92 77.06 77.09 71.60 66.44 75.40 75.46 75.89 75.73 71.22 66.97 66.88 66.68 66.49 65.80 68.71 74.58 73.60 73.23 72.13
58.44 59.23 60.85 62.35 62.70 63.94 66.04 68.10 70.98 72.67 71.43 71.73 71.85 73.16 69.79 74.36 64.67 60.56 64.42 72.41 72.83 72.59 75.69 77.30 66.92 73.22 66.41 62.66 74.40 75.23 74.31 74.62 75.29 75.90 76.31 72.17 67.71 72.24 64.41 72.91 74.83 72.82 72.58
58.65 59.26 60.02 61.73 61.87 63.65 65.40 67.13 67.92 70.19 72.01 72.84 72.59 73.13 73.29 72.51 73.04 59.61 58.62 73.05 72.62 72.61 72.12 72.58 73.52 63.07 61.34 59.11 62.38 76.41 74.68 75.03 73.48 75.89 75.71 75.46 75.86 76.11 76.18 75.89 76.19 75.03 73.26
58.00 58.39 59.34 60.00 61.37 63.80 64.12 63.66 65.28 68.73 69.33 69.64 72.29 72.34 73.09 74.05 64.62 61.23 57.19 59.40 68.07 73.40 73.74 73.87 74.09 60.18 57.56 57.38 60.32 64.51 63.14 64.41 74.55 74.24 73.98 73.39 73.88 74.57 75.65 76.67 77.79 77.13 77.13
58.91 56.91 57.57 58.69 60.28 62.14 62.05 62.42 63.76 66.28 68.87 69.05 69.78 70.29 71.43 73.82 74.03 59.24 56.41 56.49 58.74 70.10 73.84 70.58 63.10 57.05 55.77 58.65 57.52 60.29 59.59 71.10 73.15 73.21 72.73 73.01 74.44 75.71 77.60 77.09 77.54 78.36 78.26
58.42 58.25 56.67 57.34 57.63 58.38 60.17 62.20 63.56 64.03 66.37 67.82 68.79 70.18 71.08 72.85 73.96 74.54 70.05 66.15 58.80 63.14 65.98 70.83 69.05 66.33 64.77 68.69 69.34 65.18 70.76 74.18 74.01 73.70 73.50 74.57 75.86 76.04 75.52 76.01 75.26 75.46 75.14
57.20 57.84 57.61 56.02 57.15 57.43 58.57 59.04 60.78 63.44 63.72 65.64 67.92 71.28 71.61 71.92 73.76 68.92 70.35 73.71 71.92 68.79 69.72 72.99 73.10 73.06 72.81 72.77 73.57 74.92 75.23 75.06 73.76 74.28 74.47 74.32 74.68 75.23 75.22 75.86 75.33 75.23 74.07
55.15 56.56 56.65 56.02 56.10 56.43 57.62 57.89 55.00 52.82 52.48 51.22 50.13 54.49 67.26 63.50 57.98 54.66 53.75 53.75 53.94 53.94 67.88 72.18 72.86 72.69 71.63 71.87 72.17 72.29 73.58 72.96 74.80 74.69 74.65 74.71 74.63 74.88 75.24 75.49 75.33 74.87 73.86
53.14 54.40 56.00 54.53 55.25 54.45 55.51 56.06 56.95 58.29 52.12 51.03 48.50 48.32 47.77 54.00 52.12 49.77 49.58 49.95 50.31 54.48 71.12 72.38 72.93 72.43 72.12 72.02 72.35 72.07 72.83 74.38 76.52 74.69 74.79 75.31 75.51 75.29 74.37 74.12 73.55 72.96 73.02
53.12 50.62 53.62 54.50 54.96 54.80 54.55 55.87 57.66 58.69 60.40 62.85 57.38 56.11 53.21 46.32 47.95 50.31 50.49 53.57 61.20 56.61 70.40 71.82 73.03 72.83 73.15 72.79 72.51 72.23 72.99 73.48 74.90 75.14 75.35 75.97 75.83 74.68 73.04 72.52 72.18 71.50 71.22
51.82 51.50 54.18 54.40 54.78 54.28 55.35 56.90 57.66 59.92 60.62 59.99 62.11 59.75 55.13 50.85 47.77 48.50 50.49 67.08 69.39 70.11 67.47 70.20 72.31 73.62 74.17 74.58 74.56 73.58 73.39 73.84 74.48 74.83 75.89 75.83 75.22 74.03 72.44 72.19 72.01 63.35 67.48
50.07 50.25 50.75 52.40 53.15 53.80 56.01 57.60 58.29 58.13 58.28 57.75 59.50 60.33 56.17 55.61 63.47 65.01 60.48 64.82 68.62 71.85 73.00 70.52 71.12 72.59 73.93 74.57 74.59 73.78 73.75 73.01 74.67 75.02 75.16 75.54 75.67 74.48 72.73 73.38 73.11 73.05 72.76
48.80 51.20 50.20 50.49 52.10 53.31 54.72 55.63 56.33 56.26 55.83 56.46 57.04 55.84 45.78 51.25 57.56 64.69 67.15 66.14 67.74 70.32 66.34 63.07 62.71 62.21 61.58 61.33 63.46 65.27 65.74 66.10 64.51 64.51 65.86 68.69 71.62 73.14 73.82 74.06 73.80 73.95 73.96
49.69 50.04 50.54 50.26 50.88 50.74 52.45 53.67 53.32 53.53 52.59 52.67 53.26 52.66 45.40 54.55 53.84 55.53 54.77 54.19 53.47 53.48 55.33 56.05 55.73 54.91 54.21 56.25 57.78 59.10 59.81 59.19 58.00 57.68 59.58 61.17 63.53 65.76 67.63 69.72 71.91 72.28 73.65
48.13 48.78 49.60 50.14 49.76 49.07 50.06 51.37 50.19 50.16 49.28 49.19 48.90 48.28 48.79 48.49 49.10 48.54 49.66 51.31 51.06 50.46 51.23 52.50 52.68 51.56 52.93 52.52 52.05 53.02 55.67 55.34 56.44 56.72 59.03 60.28 61.84 63.85 65.15 66.41 69.39 70.08 71.71
46.49 46.67 46.86 47.43 47.47 47.06 47.58 47.16 46.67 44.56 45.27 45.57 45.71 45.22 44.76 44.62 44.11 43.95 45.03 45.71 44.25 44.65 46.53 48.55 47.79 49.14 50.11 50.02 50.51 50.02 50.84 51.87 55.95 56.87 57.18 60.13 60.67 59.95 63.56 63.15 63.11 64.95 68.06
41.90 42.59 43.52 44.00 43.79 44.03 44.71 43.95 43.16 43.03 42.79 42.16 42.08 42.44 42.62 42.79 41.99 41.46 41.51 41.57 41.63 42.04 41.68 42.97 43.43 42.59 43.22 42.58 42.66 43.74 38.09 36.17 46.78 42.51 57.97 58.44 59.00 60.46 61.66 62.60 62.24 63.63 63.89
40.01 40.24 40.49 40.77 40.77 40.78 41.29 40.78 39.92 39.75 39.86 39.17 39.75 40.02 39.94 39.71 39.93 40.14 40.63 39.97 39.47 39.17 39.09 39.48 39.84 39.57 39.66 37.99 36.41 34.27 32.14 32.35 42.21 36.90 56.40 57.05 56.96 57.97 59.19 58.71 58.84 58.19 59.00
MSLP
1015.87 1016.35 1016.80 1017.24 1017.87 1018.46 1018.63 1019.00 1019.18 1019.22 1019.30 1019.77 1020.08 1020.37 1020.61 1020.80 1021.00 1021.44 1021.72 1021.87 1022.09 1022.25 1022.49 1022.61 1022.61 1022.72 1022.49 1022.51 1022.56 1022.49 1022.32 1022.21 1021.63 1021.02 1021.15 1020.82 1020.88 1020.47 1019.93 1019.62 1019.04 1018.68 1018.46
1015.37 1016.01 1016.52 1016.95 1017.35 1017.90 1018.19 1018.38 1018.82 1019.08 1019.01 1019.24 1019.68 1020.08 1020.32 1020.52 1020.77 1021.00 1021.25 1021.43 1021.71 1021.85 1021.99 1022.19 1022.21 1022.26 1022.45 1022.45 1022.29 1022.32 1022.10 1022.08 1021.83 1021.16 1020.95 1020.76 1020.65 1020.30 1019.93 1019.59 1019.10 1018.58 1018.49
1015.41 1015.67 1016.17 1016.61 1016.99 1017.19 1017.60 1017.94 1018.29 1018.73 1018.86 1018.94 1019.27 1019.62 1019.93 1020.13 1020.45 1020.59 1020.77 1020.95 1021.23 1021.41 1021.53 1021.63 1021.70 1021.89 1022.02 1021.86 1022.03 1021.90 1021.73 1021.77 1021.59 1021.27 1020.77 1020.53 1020.33 1019.93 1019.62 1019.03 1018.96 1018.57 1017.96
1014.93 1015.36 1015.62 1016.01 1016.37 1016.54 1016.92 1017.49 1017.79 1018.09 1018.51 1018.77 1018.90 1019.13 1019.39 1019.65 1019.93 1020.17 1020.30 1020.50 1020.65 1020.78 1020.95 1021.06 1021.16 1021.31 1021.47 1021.63 1021.73 1021.76 1021.61 1021.55 1021.17 1021.00 1020.43 1020.05 1019.74 1019.61 1019.59 1018.88 1018.41 1018.13 1017.93
1015.41 1015.19 1015.17 1015.61 1015.95 1016.25 1016.51 1016.88 1017.34 1017.66 1017.85 1018.19 1018.51 1018.65 1018.95 1019.13 1019.18 1019.51 1019.83 1019.99 1020.09 1020.17 1020.35 1020.48 1020.45 1020.39 1020.77 1021.01 1021.39 1021.27 1021.40 1021.21 1020.80 1020.45 1020.03 1019.61 1019.26 1019.04 1019.02 1018.93 1018.48 1018.02 1017.53
1016.06 1015.66 1015.45 1015.44 1015.63 1015.79 1015.98 1016.25 1016.61 1016.89 1017.25 1017.61 1017.79 1017.95 1018.14 1018.39 1018.51 1018.76 1019.10 1019.27 1019.42 1019.51 1019.57 1019.81 1019.99 1020.40 1020.39 1020.73 1020.96 1020.97 1021.25 1021.11 1020.89 1020.40 1019.75 1019.29 1019.23 1019.05 1018.73 1018.74 1018.47 1018.08 1017.38
1017.01 1016.51 1015.75 1015.49 1015.40 1015.44 1015.57 1015.75 1015.85 1016.09 1016.46 1016.76 1016.99 1017.28 1017.28 1017.47 1017.85 1018.19 1018.44 1018.59 1018.63 1018.75 1018.87 1019.03 1019.21 1019.34 1019.84 1020.15 1020.25 1020.38 1020.61 1020.53 1020.54 1020.19 1019.59 1019.21 1018.76 1018.76 1018.75 1018.71 1018.36 1018.17 1017.68
1017.00 1016.95 1016.84 1016.14 1015.46 1015.17 1015.14 1015.21 1015.31 1015.42 1015.64 1015.91 1016.07 1016.34 1016.57 1016.67 1016.91 1017.25 1017.69 1018.10 1017.99 1017.91 1018.05 1018.25 1018.48 1018.58 1018.86 1019.15 1019.38 1019.39 1019.34 1019.23 1019.17 1019.28 1018.90 1018.43 1018.22 1018.21 1018.39 1018.35 1018.41 1018.17 1017.61
1018.27 1017.85 1017.26 1016.88 1016.36 1015.74 1015.09 1014.88 1014.87 1014.96 1014.96 1015.11 1015.32 1015.37 1015.52 1015.76 1016.12 1016.41 1017.03 1017.17 1017.08 1017.08 1017.12 1017.36 1017.63 1017.83 1017.99 1018.27 1018.66 1018.45 1018.30 1017.80 1017.53 1018.15 1018.18 1017.99 1018.02 1018.13 1018.36 1018.20 1017.69 1017.19 1016.53
1018.51 1018.11 1017.73 1016.68 1016.47 1016.23 1015.79 1015.18 1014.56 1014.45 1014.57 1014.46 1014.42 1014.45 1014.55 1014.70 1015.13 1015.50 1015.98 1016.01 1015.88 1015.90 1016.08 1016.36 1016.69 1016.92 1017.15 1017.50 1017.81 1017.58 1017.37 1016.92 1016.90 1016.84 1017.31 1017.27 1017.55 1017.18 1017.83 1017.72 1017.05 1016.61 1016.13
1018.64 1018.36 1017.87 1016.32 1016.61 1016.61 1015.79 1015.19 1014.77 1014.43 1014.41 1013.99 1013.71 1013.67 1013.73 1013.83 1014.05 1014.33 1014.87 1015.09 1014.67 1014.68 1014.70 1014.70 1015.07 1015.53 1016.21 1016.53 1016.70 1016.65 1016.34 1016.39 1016.31 1016.49 1016.32 1016.03 1015.72 1015.83 1015.86 1016.11 1016.18 1016.11 1015.56
1018.41 1017.75 1017.27 1016.81 1016.81 1016.47 1015.62 1015.14 1014.76 1014.33 1014.15 1013.74 1013.27 1012.97 1012.58 1012.83 1013.04 1013.30 1013.52 1013.89 1013.77 1013.83 1013.58 1013.55 1013.87 1014.22 1014.71 1015.36 1015.91 1015.66 1015.76 1015.96 1015.87 1015.53 1015.19 1014.91 1014.75 1014.72 1014.71 1014.77 1015.04 1015.21 1014.95
1018.30 1018.13 1017.96 1017.48 1016.77 1016.32 1015.96 1015.05 1014.31 1014.40 1013.96 1013.01 1013.35 1012.41 1011.74 1011.31 1011.84 1012.05 1012.37 1012.69 1012.85 1013.16 1012.83 1012.73 1013.01 1013.42 1013.83 1014.33 1014.59 1014.79 1015.09 1015.36 1014.92 1014.55 1014.20 1013.92 1013.95 1013.93 1014.03 1014.31 1014.35 1014.32 1014.37
1017.94 1017.70 1017.58 1017.00 1016.86 1016.53 1015.17 1015.00 1014.65 1014.59 1013.78 1013.61 1012.75 1011.83 1011.10 1010.71 1010.65 1010.85 1011.28 1011.85 1012.26 1012.67 1012.36 1012.30 1012.47 1012.70 1013.27 1013.38 1013.54 1013.83 1014.13 1013.77 1013.55 1013.37 1013.15 1013.07 1013.15 1013.23 1013.26 1013.46 1013.40 1013.32 1013.29
1017.33 1017.14 1017.17 1016.93 1016.96 1016.21 1014.85 1014.49 1014.66 1013.89 1013.64 1013.47 1012.56 1011.59 1010.54 1009.87 1009.38 1009.70 1009.81 1010.01 1010.36 1010.69 1011.01 1011.32 1011.37 1011.69 1011.89 1012.16 1012.25 1012.12 1012.24 1012.42 1012.54 1012.55 1012.35 1012.24 1012.19 1012.22 1012.28 1012.45 1012.49 1012.40 1012.43
1017.13 1016.72 1016.46 1016.37 1016.24 1015.80 1015.24 1013.51 1013.43 1012.92 1012.69 1012.79 1012.39 1012.08 1010.38 1009.37 1009.37 1009.39 1009.45 1009.38 1009.64 1010.23 1010.97 1010.55 1010.21 1010.44 1010.60 1010.87 1011.05 1011.15 1011.22 1011.25 1011.06 1011.19 1011.14 1011.16 1011.18 1011.21 1011.21 1011.46 1011.69 1011.65 1011.37
1016.68 1016.51 1016.01 1015.72 1015.53 1015.00 1015.18 1013.85 1012.97 1012.33 1012.97 1012.58 1011.81 1010.92 1010.35 1009.19 1008.77 1008.91 1008.96 1009.13 1009.45 1010.27 1009.95 1009.51 1009.31 1009.45 1009.65 1009.89 1010.03 1010.28 1010.19 1009.99 1010.18 1010.13 1010.10 1010.13 1010.16 1010.31 1010.41 1010.68 1010.97 1011.13 1011.00
1015.97 1015.93 1015.70 1015.09 1014.76 1014.30 1014.05 1013.24 1013.07 1012.77 1011.69 1010.71 1010.90 1009.98 1008.65 1008.75 1008.43 1008.79 1009.01 1009.54 1009.95 1010.22 1009.33 1008.93 1008.62 1008.81 1009.01 1009.21 1009.32 1009.55 1009.67 1009.71 1009.52 1009.38 1009.29 1009.29 1009.32 1009.55 1010.05 1010.25 1010.41 1010.51 1010.62
1015.41 1015.14 1014.81 1014.50 1014.15 1013.70 1013.47 1012.92 1012.73 1011.46 1011.11 1010.55 1010.44 1009.34 1008.92 1009.00 1008.23 1008.00 1008.24 1008.42 1008.75 1008.69 1008.73 1008.37 1008.17 1008.14 1008.21 1008.43 1008.46 1008.82 1008.89 1008.81 1008.74 1008.64 1008.61 1008.63 1008.80 1009.06 1009.27 1009.49 1009.67 1009.86 1009.87
1015.05 1014.92 1014.67 1014.12 1013.71 1013.22 1012.75 1012.46 1012.18 1011.39 1011.56 1011.20 1010.77 1009.70 1009.52 1009.29 1008.23 1007.38 1008.00 1007.75 1008.15 1007.89 1007.81 1007.91 1007.75 1007.54 1007.55 1007.51 1007.71 1008.01 1008.15 1008.26 1008.20 1008.08 1008.03 1007.98 1007.97 1008.26 1008.51 1008.61 1008.72 1008.89 1009.00
1014.29 1013.98 1014.00 1013.96 1013.34 1012.81 1012.55 1012.40 1011.89 1011.69 1011.57 1011.06 1010.97 1010.42 1010.35 1009.89 1009.11 1007.77 1007.79 1008.32 1007.99 1007.30 1006.76 1007.58 1008.05 1008.14 1008.27 1008.21 1008.07 1007.97 1007.91 1008.26 1008.52 1008.54 1008.38 1008.13 1007.87 1007.76 1007.85 1007.89 1007.92 1007.93 1007.97
1013.69 1013.42 1013.15 1012.91 1012.75 1012.56 1012.38 1012.13 1011.86 1011.67 1011.59 1011.55 1011.00 1010.24 1010.01 1009.08 1008.71 1007.87 1008.17 1008.95 1008.93 1007.62 1007.05 1006.89 1008.25 1009.29 1009.02 1008.76 1008.84 1008.86 1008.73 1008.73 1008.85 1008.83 1008.73 1008.62 1008.48 1008.30 1008.09 1007.78 1007.40 1007.22 1007.20
1013.71 1013.13 1012.68 1012.41 1012.39 1012.28 1012.14 1011.97 1011.88 1011.98 1011.92 1011.87 1011.20 1010.29 1010.24 1009.96 1009.67 1009.90 1009.32 1009.77 1009.11 1008.79 1010.17 1009.15 1009.55 1009.51 1009.65 1009.15 1009.06 1009.51 1009.61 1009.19 1009.08 1009.03 1008.61 1008.27 1008.23 1008.00 1007.85 1007.71 1007.25 1007.05 1006.78
1013.41 1013.17 1012.97 1012.58 1012.23 1012.19 1012.09 1012.11 1012.22 1012.30 1012.24 1012.29 1011.14 1010.91 1010.77 1010.53 1010.50 1010.50 1010.45 1010.15 1009.93 1010.16 1010.62 1010.57 1009.93 1010.25 1010.33 1010.21 1010.01 1010.08 1010.27 1009.86 1009.39 1009.23 1008.70 1008.37 1007.99 1007.80 1007.74 1007.44 1007.17 1006.89 1006.50
1013.71 1013.37 1013.12 1012.76 1012.44 1012.28 1012.15 1012.18 1012.18 1012.09 1012.47 1012.47 1011.26 1011.53 1011.72 1011.35 1011.32 1011.06 1010.94 1010.97 1011.34 1011.34 1011.76 1011.69 1011.31 1011.33 1011.65 1010.93 1010.68 1011.25 1011.20 1010.58 1009.92 1009.41 1008.74 1008.83 1008.32 1007.88 1007.53 1007.43 1007.58 1007.62 1007.44
1013.93 1013.48 1013.22 1013.04 1012.76 1012.67 1012.55 1012.54 1012.25 1012.57 1012.64 1012.39 1011.89 1012.14 1012.55 1012.41 1012.12 1011.68 1011.91 1012.21 1012.09 1011.69 1011.64 1012.42 1012.27 1012.21 1012.15 1012.05 1011.61 1011.79 1011.56 1010.92 1010.27 1009.88 1009.15 1008.99 1009.05 1008.95 1008.31 1008.14 1008.15 1008.10 1007.95
Wind_Speed
16 15 14 14 14 12 11 11 10 8 8 9 8 8 8 8 9 9 7 6 7 5 5 5 5 4 4 3 3 4 4 4 7 7 5 7 9 9 10 9 7 7 6
12 11 14 13 13 13 12 12 11 11 9 10 9 8 9 10 9 9 9 8 9 8 7 7 7 5 6 5 5 5 5 4 6 8 7 8 8 10 9 10 8 8 7
10 10 10 13 13 14 14 12 11 12 12 11 9 9 10 10 11 11 10 10 10 10 9 8 8 7 7 6 6 5 5 5 6 7 8 7 7 8 9 8 8 8 7
11 12 11 13 14 13 13 13 13 13 12 12 12 11 11 11 11 11 10 10 11 11 10 9 9 9 9 8 7 7 6 6 6 8 8 8 8 7 6 8 9 8 8
8 11 13 13 13 13 12 13 13 13 13 13 13 13 12 11 10 12 12 11 11 11 11 10 10 10 9 9 7 7 7 8 7 8 8 8 8 7 8 7 8 9 8
6 10 11 11 12 13 13 14 13 14 14 13 14 14 14 12 12 14 12 11 11 11 11 12 11 10 11 12 12 13 10 9 10 9 9 9 10 9 7 7 8 9 7
9 11 8 11 12 12 12 13 14 14 14 14 15 15 15 15 12 15 17 12 11 12 13 12 11 10 11 11 12 13 12 14 15 12 12 11 12 10 9 9 8 9 9
7 8 9 11 10 12 12 13 14 13 13 13 14 15 15 13 14 17 17 16 13 14 14 14 14 13 12 12 11 11 11 11 11 10 13 13 12 10 9 9 8 9 8
7 6 7 8 9 9 10 13 12 12 13 13 13 14 15 15 15 17 15 16 16 16 15 15 15 15 13 15 13 13 13 13 9 13 15 13 12 10 8 8 8 8 8
9 9 8 6 7 9 8 8 8 9 11 12 14 14 15 16 14 17 17 13 15 14 14 15 15 17 14 15 14 14 13 14 12 11 10 11 13 12 12 12 9 9 9
11 10 9 5 6 8 8 7 6 7 9 11 12 12 15 15 15 17 19 15 13 13 14 13 14 20 20 15 18 14 14 12 11 10 11 10 10 10 9 10 11 10 10
9 13 11 9 5 6 8 7 8 8 11 11 11 12 12 14 17 15 18 22 16 14 14 13 13 14 19 19 15 18 14 10 10 10 10 10 10 9 9 9 10 11 10
12 8 8 11 8 7 7 8 6 8 11 10 9 9 11 12 12 19 18 21 22 16 15 14 13 12 16 14 17 15 14 10 10 11 11 11 10 9 8 8 9 11 12
12 12 8 7 11 9 4 6 7 7 8 13 12 11 10 11 13 12 11 12 18 14 17 14 14 12 12 12 11 12 11 11 11 11 12 10 9 9 9 8 9 8 8
13 11 11 6 7 11 5 3 9 8 8 10 10 11 12 11 14 12 12 11 12 14 13 12 12 12 12 12 12 13 11 12 12 12 12 11 11 10 10 9 10 10 11
13 11 9 8 8 9 10 5 9 14 19 20 20 17 13 16 12 12 15 15 13 9 8 12 12 12 13 12 11 11 11 13 13 12 12 12 11 11 11 10 10 11 12
10 11 10 9 9 8 8 5 9 9 18 20 20 19 19 18 12 13 14 12 9 11 10 11 12 11 11 11 11 12 12 12 10 11 11 11 11 11 10 10 9 8 9
12 11 11 9 10 8 7 8 7 10 10 9 10 13 10 12 14 14 8 10 3 5 8 9 9 8 8 8 8 8 8 8 10 10 10 11 11 10 8 8 9 9 8
10 8 9 10 9 10 9 8 9 8 9 11 11 9 4 8 7 12 12 5 8 8 9 9 9 8 8 9 8 8 9 9 10 10 10 10 10 9 8 9 10 11 11
8 13 12 9 9 10 9 7 7 8 9 9 8 6 6 7 5 1 3 4 8 8 5 7 8 8 9 8 8 8 8 7 9 10 9 8 7 8 10 10 9 9 10
6 8 9 9 9 8 8 8 8 7 8 8 8 5 7 6 7 3 4 6 7 6 3 2 3 3 4 3 2 3 3 2 1 2 3 3 3 6 7 8 8 9 9
7 7 7 8 8 7 8 7 6 7 7 8 8 6 10 5 6 6 5 3 3 6 7 8 3 3 3 3 3 3 2 1 1 0 1 2 4 5 5 6 6 8 10
8 9 8 7 7 7 7 6 4 6 6 6 6 5 4 4 4 3 5 3 5 6 3 4 4 4 3 4 5 4 4 2 3 3 3 2 2 2 3 5 6 7 9
9 8 8 7 6 6 5 4 3 4 4 5 3 3 3 4 4 5 4 5 7 7 7 6 7 8 6 6 5 5 5 5 3 3 2 1 1 1 1 2 4 6 3
7 7 7 5 4 4 4 3 2 2 2 2 3 3 3 4 4 5 6 6 7 7 7 7 7 8 9 11 11 9 7 9 6 7 2 2 3 4 3 4 4 3 4
5 6 5 4 2 2 2 1 2 2 2 3 3 5 3 4 5 6 7 7 6 8 11 8 10 13 12 10 11 10 10 13 11 10 4 6 6 6 5 5 5 3 4
Wind_Direction
210 211 207 206 213 217 214 224 223 204 189 200 204 208 223 216 210 202 208 212 217 217 221 231 239 236 256 249 249 255 256 255 283 303 298 317 312 322 330 336 335 332 4
214 209 216 215 208 213 216 215 221 224 207 200 204 211 218 227 220 224 213 211 219 222 224 222 235 228 236 237 244 258 269 266 280 295 319 309 310 314 317 323 332 341 337
206 202 209 218 213 217 220 216 214 226 223 208 202 203 209 216 222 224 229 229 228 231 229 227 235 230 237 246 248 263 260 257 251 281 299 300 302 305 319 317 329 331 328
222 220 214 215 221 220 221 220 216 215 225 225 217 215 213 210 214 226 226 233 235 234 231 230 233 235 242 250 253 256 256 263 265 268 285 293 297 311 301 310 326 334 339
251 238 230 229 227 226 221 225 225 222 224 225 227 224 223 217 214 216 222 228 233 231 229 231 229 235 233 242 258 254 266 258 270 276 283 287 291 309 317 324 309 326 321
320 259 254 242 232 228 226 225 225 226 226 227 227 226 223 228 213 201 214 220 225 228 227 230 237 216 231 228 227 240 253 257 264 276 279 283 284 289 303 306 312 326 327
11 349 277 251 247 237 232 229 227 226 230 227 230 231 229 225 205 202 205 225 224 224 227 230 233 233 222 241 221 228 239 232 236 256 265 267 279 283 294 293 302 305 296
13 1 354 357 291 252 242 238 235 232 230 230 231 230 234 233 203 201 200 224 232 230 229 230 233 239 229 230 238 249 255 255 236 232 240 255 261 271 273 282 296 291 282
8 351 348 338 331 333 280 254 245 242 237 233 235 232 229 237 208 206 195 226 234 234 233 234 232 237 232 208 235 250 258 262 239 224 250 259 259 259 260 283 267 278 292
345 333 315 344 336 313 309 314 246 229 234 238 240 234 232 238 213 206 199 227 233 236 233 235 221 238 218 194 220 243 253 258 261 262 243 239 241 252 214 229 255 263 276
329 318 308 336 330 308 305 307 301 295 264 245 243 236 238 233 237 205 199 223 232 234 237 235 233 208 224 206 211 238 242 251 258 250 258 258 254 249 246 217 235 248 255
321 324 320 322 304 301 313 316 305 270 265 266 255 244 236 237 227 217 203 209 223 235 241 241 240 202 204 210 209 235 238 235 254 256 255 255 255 253 248 238 239 236 245
308 303 301 303 303 301 312 310 311 281 267 264 257 246 242 238 235 216 207 207 221 229 238 239 240 211 202 209 216 221 221 230 237 244 247 250 253 260 267 250 242 242 240
296 300 298 308 304 286 293 308 293 267 268 263 259 250 244 243 242 231 211 212 226 224 240 241 240 238 224 231 216 216 226 231 233 238 246 252 255 251 245 243 246 240 245
292 292 291 285 283 291 269 259 284 270 265 276 280 278 254 243 241 237 228 211 213 217 216 228 234 232 235 232 236 235 227 227 228 236 245 246 247 248 248 243 240 244 241
279 281 286 292 285 286 285 301 259 259 276 277 268 251 272 262 261 233 219 218 214 198 198 229 229 229 228 228 228 230 229 235 237 236 240 243 246 246 247 241 240 242 242
260 277 283 286 282 284 280 276 298 293 242 252 262 258 242 252 262 238 234 233 201 173 222 225 235 231 229 233 231 232 234 234 232 234 238 239 239 242 237 244 239 232 242
263 257 274 280 285 286 284 301 288 282 290 300 271 267 283 268 254 241 215 156 155 245 225 230 229 225 231 227 222 228 230 233 236 234 238 241 238 240 230 224 228 231 229
263 265 277 284 282 292 291 285 274 280 302 302 302 292 3 293 287 221 191 207 219 217 219 226 223 232 233 231 224 222 222 224 228 229 234 236 233 235 225 229 235 224 228
248 254 267 280 284 287 286 283 287 292 292 289 289 309 339 309 281 176 221 204 225 225 214 219 236 238 231 227 224 221 227 230 240 242 247 250 243 232 234 226 224 227 214
262 262 263 271 266 273 277 278 286 288 285 293 290 307 317 283 269 236 254 229 239 234 139 109 29 9 2 327 268 217 190 206 7 357 5 332 281 243 229 228 227 226 219
266 270 272 271 277 273 273 285 288 288 290 288 295 313 331 334 341 6 45 10 15 23 24 71 60 38 32 44 348 304 279 174 112 41 324 311 305 302 292 289 254 234 228
276 282 276 270 269 275 278 282 295 298 298 291 302 332 346 355 25 9 53 25 51 70 8 96 107 92 71 64 54 7 288 222 214 229 225 204 254 306 292 290 257 250 238
290 285 274 274 270 277 275 276 285 291 305 300 341 355 2 23 41 45 50 43 55 49 42 33 54 53 44 43 40 31 351 342 292 242 226 298 90 11 303 5 354 6 16
310 298 292 282 272 269 268 268 307 337 330 330 45 28 23 59 66 64 56 62 65 70 59 48 53 58 47 52 48 26 4 354 21 315 360 6 98 97 70 47 31 16 43
329 323 312 309 296 265 241 200 82 39 36 39 67 70 64 68 73 72 73 74 76 72 66 46 43 41 44 36 41 17 5 5 16 358 41 61 36 17 27 45 57 67 56